マクノート彗星

220P/McNaught (2020)

English version
Home page
Updated on February 21, 2021

---------------------------------------------------------------------

・ プロフィール

・ 写真集

・ 軌道要素

Epoch 2020 Dec. 17.0 TT = JDT 2459200.5
T 2020 Dec. 10.62846 TT                                 Rudenko
q   1.5523528            (2000.0)            P               Q
n   0.17917737     Peri.  180.53110     +0.87145331     +0.48538821
a   3.1161184      Node   150.10228     -0.44948224     +0.84783666
e   0.5018313      Incl.    8.12871     -0.19630295     +0.21347433
P   5.50
From 485 observations 2004 May 20-2020 Dec. 4, mean residual 0".8.

・ 光度変化

        m1 = 14.0 + 5 logΔ + 15.0 log r

---------------------------------------------------------------------

軌道要素はM.P.E.C. 2021-B143に掲載されたものです。
光度グラフはComet for Windowsで作成したものです。

---------------------------------------------------------------------

Copyright(C) Seiichi Yoshida (comet@aerith.net). All rights reserved.